CCA1462 ZUBJ-ZWTL

Flight info

Callsign CCA1462
Flight time 3h 31m
Altitude 34100
Route P2519D P253 J129 P444 W179 RIRKI W232 WFX W179 OMBON W195 VIDEK X18 XNN H74 NODID J105 P434 B215 IBANO G470 AKLAS W192 LUPRO X157 P80 P8009A
Aircraft A320/M-SDE3FGHIRWY/LB1

Departure

Time 2026-05-06 01:30
Airport Bijie Feixiong Airport (ZUBJ)

Arrival

Time 2026-05-06 05:01
Airport Turpan Jiaohe Airport (ZWTL)
Time Latitude Longitude Altitude Speed Heading
2026-05-06 01:09 27.26556 105.47958 4831 ft 0 kts 173°
2026-05-06 01:24 27.26559 105.47958 4831 ft 3 kts 173°
2026-05-06 01:24 27.26579 105.47955 4833 ft 3 kts 172°
2026-05-06 01:25 27.26599 105.47952 4831 ft 3 kts 170°
2026-05-06 01:25 27.26615 105.47948 4831 ft 1 kts 156°
2026-05-06 01:25 27.26623 105.47944 4831 ft 1 kts 123°
2026-05-06 01:25 27.26627 105.47936 4831 ft 1 kts 85°
2026-05-06 01:26 27.26626 105.47926 4831 ft 1 kts 83°
2026-05-06 01:26 27.26626 105.47922 4831 ft 0 kts 81°
2026-05-06 01:27 27.26626 105.47923 4830 ft 1 kts 81°
2026-05-06 01:27 27.26633 105.47977 4830 ft 13 kts 83°
2026-05-06 01:27 27.26643 105.48076 4830 ft 12 kts 83°
2026-05-06 01:27 27.26695 105.48114 4832 ft 9 kts 354°
2026-05-06 01:28 27.26753 105.48107 4830 ft 9 kts 354°
2026-05-06 01:28 27.26820 105.48142 4831 ft 16 kts 77°
2026-05-06 01:28 27.26832 105.48265 4830 ft 16 kts 82°
2026-05-06 01:28 27.26822 105.48390 4832 ft 16 kts 107°
2026-05-06 01:29 27.26853 105.48431 4834 ft 6 kts 307°
2026-05-06 01:29 27.26851 105.48409 4835 ft 0 kts 262°
2026-05-06 01:29 27.26846 105.48363 4830 ft 23 kts 262°
2026-05-06 01:29 27.26786 105.47886 4835 ft 97 kts 262°
2026-05-06 01:30 27.26658 105.46908 4838 ft 154 kts 260°
2026-05-06 01:30 27.26456 105.45643 5259 ft 164 kts 259°
2026-05-06 01:30 27.26252 105.44418 6090 ft 156 kts 252°
2026-05-06 01:30 27.25982 105.43247 6673 ft 155 kts 249°
2026-05-06 01:31 27.25673 105.42028 6946 ft 173 kts 250°
2026-05-06 01:31 27.25317 105.40650 7138 ft 195 kts 252°
2026-05-06 01:31 27.24924 105.39117 7512 ft 208 kts 251°
2026-05-06 01:31 27.24530 105.37549 8122 ft 209 kts 253°
2026-05-06 01:32 27.24139 105.35987 8768 ft 206 kts 253°
2026-05-06 01:32 27.23754 105.34442 9365 ft 205 kts 254°
2026-05-06 01:32 27.23372 105.32904 9863 ft 204 kts 254°
2026-05-06 01:32 27.22989 105.31360 10300 ft 205 kts 254°
2026-05-06 01:33 27.22603 105.29811 10700 ft 208 kts 254°
2026-05-06 01:33 27.22215 105.28260 11191 ft 210 kts 254°
2026-05-06 01:33 27.21812 105.26659 11676 ft 211 kts 255°
2026-05-06 01:33 27.21413 105.25072 12101 ft 216 kts 255°
2026-05-06 01:34 27.21004 105.23437 12515 ft 219 kts 255°
2026-05-06 01:34 27.20590 105.21777 12962 ft 222 kts 255°
2026-05-06 01:34 27.20146 105.20109 13421 ft 225 kts 249°
2026-05-06 01:34 27.19150 105.18729 13763 ft 240 kts 217°
2026-05-06 01:35 27.17522 105.18141 14081 ft 259 kts 186°
2026-05-06 01:35 27.15745 105.18658 14456 ft 275 kts 152°
2026-05-06 01:35 27.14440 105.20265 14832 ft 288 kts 116°
2026-05-06 01:35 27.14063 105.22496 15028 ft 302 kts 83°
2026-05-06 01:36 27.14651 105.24810 15147 ft 318 kts 63°
2026-05-06 01:36 27.15766 105.27025 15262 ft 335 kts 54°
2026-05-06 01:36 27.17129 105.29241 15391 ft 354 kts 52°
2026-05-06 01:36 27.18591 105.31551 15516 ft 372 kts 53°
2026-05-06 01:37 27.20081 105.34010 15636 ft 390 kts 54°
2026-05-06 01:37 27.21563 105.36629 15836 ft 403 kts 57°
2026-05-06 01:37 27.23011 105.39350 16257 ft 408 kts 58°
2026-05-06 01:37 27.24435 105.42129 16718 ft 412 kts 59°
2026-05-06 01:38 27.25854 105.44946 17194 ft 416 kts 59°
2026-05-06 01:38 27.27143 105.47875 17668 ft 420 kts 64°
2026-05-06 01:38 27.28354 105.50875 18161 ft 423 kts 64°
2026-05-06 01:38 27.29590 105.53885 18594 ft 425 kts 64°
2026-05-06 01:39 27.30844 105.56908 18999 ft 429 kts 63°
2026-05-06 01:39 27.32115 105.59959 19404 ft 432 kts 63°
2026-05-06 01:39 27.33394 105.63028 19830 ft 435 kts 64°
2026-05-06 01:39 27.34676 105.66116 20273 ft 437 kts 64°
2026-05-06 01:40 27.35962 105.69225 20690 ft 440 kts 64°
2026-05-06 01:40 27.37255 105.72359 21097 ft 444 kts 64°
2026-05-06 01:40 27.38539 105.75473 21514 ft 446 kts 63°
2026-05-06 01:40 27.39847 105.78648 21926 ft 449 kts 64°
2026-05-06 01:41 27.41165 105.81849 22293 ft 452 kts 64°
2026-05-06 01:41 27.42495 105.85060 22702 ft 454 kts 63°
2026-05-06 01:41 27.43849 105.88283 23095 ft 457 kts 63°
2026-05-06 01:41 27.45324 105.91461 23446 ft 458 kts 54°
2026-05-06 01:42 27.47389 105.94170 23774 ft 456 kts 39°
2026-05-06 01:42 27.49969 105.96199 24073 ft 451 kts 23°
2026-05-06 01:42 27.52886 105.97441 24343 ft 447 kts
2026-05-06 01:42 27.55947 105.97813 24673 ft 440 kts 354°
2026-05-06 01:43 27.58944 105.97337 24985 ft 433 kts 340°
2026-05-06 01:43 27.61712 105.96086 25275 ft 427 kts 326°
2026-05-06 01:43 27.64110 105.94164 25604 ft 421 kts 316°
2026-05-06 01:43 27.66343 105.92018 25922 ft 422 kts 315°
2026-05-06 01:44 27.68583 105.89861 26217 ft 425 kts 315°
2026-05-06 01:44 27.70774 105.87630 26533 ft 423 kts 310°
2026-05-06 01:44 27.72606 105.85053 26851 ft 420 kts 300°
2026-05-06 01:44 27.73976 105.82207 27166 ft 417 kts 290°
2026-05-06 01:45 27.74925 105.79121 27473 ft 417 kts 285°
2026-05-06 01:45 27.75791 105.75994 27767 ft 418 kts 285°
2026-05-06 01:45 27.76664 105.72858 28065 ft 419 kts 285°
2026-05-06 01:45 27.77540 105.69717 28295 ft 421 kts 286°
2026-05-06 01:46 27.78421 105.66560 28525 ft 422 kts 285°
2026-05-06 01:46 27.79304 105.63394 28810 ft 423 kts 285°
2026-05-06 01:46 27.80295 105.60263 29047 ft 425 kts 291°
2026-05-06 01:46 27.81481 105.57197 29296 ft 427 kts 291°
2026-05-06 01:47 27.82678 105.54123 29507 ft 428 kts 291°
2026-05-06 01:47 27.83474 105.52079 29659 ft 429 kts 291°
2026-05-06 01:47 27.84674 105.48989 29884 ft 430 kts 291°
2026-05-06 01:47 27.85875 105.45889 30071 ft 431 kts 291°
2026-05-06 01:48 27.87774 105.41886 30399 ft 434 kts 302°
2026-05-06 01:48 27.89030 105.40121 30578 ft 437 kts 309°
2026-05-06 01:48 27.92147 105.37135 30915 ft 444 kts 323°
2026-05-06 01:48 27.94884 105.35474 31159 ft 448 kts 329°
2026-05-06 01:49 27.96741 105.34458 31333 ft 447 kts 329°
2026-05-06 01:49 27.99544 105.32928 31611 ft 446 kts 329°
2026-05-06 01:49 28.03244 105.30913 31944 ft 445 kts 329°
2026-05-06 01:49 28.06033 105.29391 32222 ft 444 kts 329°
2026-05-06 01:50 28.07913 105.28363 32405 ft 444 kts 329°
2026-05-06 01:50 28.10686 105.26843 32662 ft 442 kts 329°
2026-05-06 01:50 28.13452 105.25325 32905 ft 442 kts 329°
2026-05-06 01:50 28.16217 105.23802 33167 ft 441 kts 328°
2026-05-06 01:51 28.18980 105.22278 33443 ft 441 kts 328°
2026-05-06 01:51 28.21700 105.20781 33725 ft 440 kts 329°
2026-05-06 01:51 28.27195 105.17762 33822 ft 437 kts 328°
2026-05-06 01:52 28.32665 105.14756 33819 ft 436 kts 328°
2026-05-06 01:52 28.38121 105.11744 33822 ft 436 kts 328°
2026-05-06 01:53 28.43582 105.08720 33818 ft 436 kts 328°
2026-05-06 01:53 28.49043 105.05706 33816 ft 437 kts 328°
2026-05-06 01:54 28.54516 105.02683 33818 ft 437 kts 328°
2026-05-06 01:54 28.59984 104.99659 33825 ft 437 kts 328°
2026-05-06 01:55 28.65441 104.96636 33824 ft 436 kts 328°
2026-05-06 01:55 28.70889 104.93612 33826 ft 435 kts 328°
2026-05-06 01:56 28.76327 104.90596 33816 ft 434 kts 328°
2026-05-06 01:56 28.81753 104.87576 33823 ft 434 kts 327°
2026-05-06 01:57 28.87174 104.84555 33826 ft 433 kts 327°
2026-05-06 01:57 28.92591 104.81539 33824 ft 433 kts 327°
2026-05-06 01:58 28.97970 104.78540 33820 ft 433 kts 327°
2026-05-06 01:58 29.03381 104.75511 33820 ft 433 kts 327°
2026-05-06 01:59 29.08789 104.72484 33822 ft 433 kts 327°
2026-05-06 01:59 29.14193 104.69453 33818 ft 432 kts 327°
2026-05-06 02:00 29.19594 104.66425 33815 ft 432 kts 327°
2026-05-06 02:00 29.25003 104.63388 33820 ft 433 kts 327°
2026-05-06 02:01 29.30521 104.60567 33818 ft 441 kts 336°
2026-05-06 02:01 29.36700 104.59542 33817 ft 455 kts 348°
2026-05-06 02:02 29.43013 104.59035 33814 ft 455 kts 348°
2026-05-06 02:02 29.49330 104.58511 33817 ft 455 kts 348°
2026-05-06 02:03 29.55652 104.57984 33822 ft 456 kts 348°
2026-05-06 02:03 29.61981 104.57456 33831 ft 456 kts 349°
2026-05-06 02:04 29.68309 104.56932 33831 ft 456 kts 349°
2026-05-06 02:04 29.74594 104.56409 33829 ft 456 kts 349°
2026-05-06 02:05 29.80923 104.55878 33828 ft 456 kts 349°
2026-05-06 02:05 29.87256 104.55348 33827 ft 456 kts 349°
2026-05-06 02:06 29.93595 104.54818 33830 ft 457 kts 349°
2026-05-06 02:06 29.99937 104.54288 33837 ft 457 kts 349°
2026-05-06 02:07 30.06286 104.53757 33839 ft 458 kts 349°
2026-05-06 02:07 30.12641 104.53220 33851 ft 458 kts 350°
2026-05-06 02:08 30.19005 104.52681 33854 ft 459 kts 350°
2026-05-06 02:08 30.25375 104.52149 33854 ft 459 kts 350°
2026-05-06 02:09 30.31754 104.51615 33854 ft 460 kts 350°
2026-05-06 02:09 30.38144 104.51076 33851 ft 461 kts 351°
2026-05-06 02:10 30.44540 104.50532 33850 ft 461 kts 351°
2026-05-06 02:10 30.50909 104.49996 33843 ft 462 kts 351°
2026-05-06 02:11 30.57328 104.49454 33852 ft 463 kts 351°
2026-05-06 02:11 30.63572 104.48074 33848 ft 453 kts 336°
2026-05-06 02:12 30.68106 104.46335 33849 ft 454 kts 337°
2026-05-06 02:12 30.73976 104.44082 33854 ft 454 kts 337°
2026-05-06 02:13 30.79981 104.41767 33855 ft 455 kts 337°
2026-05-06 02:13 30.86021 104.39529 33865 ft 458 kts 342°
2026-05-06 02:14 30.92431 104.38847 33871 ft 466 kts 354°
2026-05-06 02:14 30.98914 104.38691 33877 ft 466 kts 354°
2026-05-06 02:15 31.05405 104.38522 33884 ft 466 kts 354°
2026-05-06 02:15 31.11851 104.38351 33892 ft 466 kts 354°
2026-05-06 02:16 31.18342 104.38178 33894 ft 466 kts 354°
2026-05-06 02:16 31.24829 104.38014 33905 ft 466 kts 354°
2026-05-06 02:17 31.31308 104.37725 33911 ft 465 kts 352°
2026-05-06 02:17 31.37768 104.37292 33919 ft 465 kts 352°
2026-05-06 02:18 31.44230 104.36865 33926 ft 465 kts 352°
2026-05-06 02:18 31.50692 104.36484 33936 ft 465 kts 352°
2026-05-06 02:19 31.57152 104.36122 33943 ft 465 kts 352°
2026-05-06 02:19 31.63605 104.35755 33952 ft 464 kts 352°
2026-05-06 02:20 31.73272 104.35183 33964 ft 463 kts 352°
2026-05-06 02:21 31.79708 104.34805 33974 ft 463 kts 352°
2026-05-06 02:21 31.86153 104.34477 33980 ft 464 kts 353°
2026-05-06 02:22 31.92559 104.34162 33987 ft 463 kts 353°
2026-05-06 02:22 31.99014 104.33827 33998 ft 464 kts 353°
2026-05-06 02:23 32.05465 104.33496 34000 ft 464 kts 353°
2026-05-06 02:23 32.11910 104.33167 33993 ft 464 kts 353°
2026-05-06 02:24 32.18364 104.32836 33998 ft 465 kts 353°
2026-05-06 02:24 32.24838 104.32503 34008 ft 465 kts 353°
2026-05-06 02:25 32.31311 104.32164 34020 ft 466 kts 353°
2026-05-06 02:25 32.37792 104.31825 34030 ft 466 kts 353°
2026-05-06 02:26 32.44275 104.31497 34040 ft 467 kts 353°
2026-05-06 02:26 32.50769 104.31188 34056 ft 467 kts 353°
2026-05-06 02:27 32.57261 104.30885 34070 ft 468 kts 353°
2026-05-06 02:27 32.63763 104.30577 34081 ft 468 kts 353°
2026-05-06 02:28 32.70264 104.30268 34088 ft 467 kts 353°
2026-05-06 02:28 32.76756 104.29955 34106 ft 467 kts 353°
2026-05-06 02:29 32.83250 104.29631 34118 ft 467 kts 352°
2026-05-06 02:30 32.95915 104.29010 34137 ft 467 kts 352°
2026-05-06 02:30 33.02407 104.28701 34135 ft 467 kts 352°
2026-05-06 02:31 33.08893 104.28382 34138 ft 466 kts 353°
2026-05-06 02:31 33.15368 104.28072 34136 ft 466 kts 352°
2026-05-06 02:32 33.21873 104.27758 34159 ft 468 kts 352°
2026-05-06 02:32 33.28386 104.27439 34168 ft 469 kts 352°
2026-05-06 02:33 33.34816 104.26631 34179 ft 459 kts 340°
2026-05-06 02:33 33.36834 104.25910 34184 ft 454 kts 334°
2026-05-06 02:34 33.45968 104.20113 34194 ft 447 kts 324°
2026-05-06 02:34 33.51367 104.16423 34208 ft 447 kts 324°
2026-05-06 02:35 33.56778 104.12726 34227 ft 448 kts 324°
2026-05-06 02:35 33.62191 104.09030 34244 ft 448 kts 324°
2026-05-06 02:36 33.67603 104.05333 34262 ft 447 kts 324°
2026-05-06 02:36 33.73000 104.01631 34270 ft 447 kts 324°
2026-05-06 02:37 33.78392 103.97931 34290 ft 446 kts 324°
2026-05-06 02:37 33.83772 103.94231 34292 ft 445 kts 324°
2026-05-06 02:38 33.89141 103.90526 34298 ft 444 kts 324°
2026-05-06 02:38 33.94495 103.86820 34314 ft 443 kts 324°
2026-05-06 02:39 33.99841 103.83124 34318 ft 442 kts 324°
2026-05-06 02:39 34.05169 103.79439 34328 ft 441 kts 324°
2026-05-06 02:40 34.10475 103.75765 34339 ft 439 kts 324°
2026-05-06 02:40 34.15777 103.72085 34498 ft 439 kts 323°
2026-05-06 02:40 34.18419 103.70249 34809 ft 437 kts 323°
2026-05-06 02:41 34.21050 103.68421 35101 ft 435 kts 323°
2026-05-06 02:41 34.23670 103.66600 35377 ft 434 kts 323°
2026-05-06 02:41 34.26283 103.64781 35649 ft 433 kts 323°
2026-05-06 02:41 34.28886 103.62965 35949 ft 431 kts 323°
2026-05-06 02:42 34.31477 103.61157 36213 ft 430 kts 323°
2026-05-06 02:42 34.34069 103.59345 36330 ft 429 kts 323°
2026-05-06 02:42 34.36650 103.57539 36346 ft 428 kts 323°
2026-05-06 02:43 34.41806 103.53938 36345 ft 428 kts 323°
2026-05-06 02:43 34.46923 103.50356 36356 ft 428 kts 323°
2026-05-06 02:44 34.52070 103.46748 36356 ft 427 kts 323°
2026-05-06 02:44 34.57211 103.43141 36368 ft 427 kts 323°
2026-05-06 02:45 34.62345 103.39538 36373 ft 426 kts 323°
2026-05-06 02:45 34.67463 103.35936 36385 ft 425 kts 323°
2026-05-06 02:46 34.72572 103.32326 36393 ft 424 kts 323°
2026-05-06 02:46 34.77678 103.28709 36398 ft 425 kts 323°
2026-05-06 02:47 34.82783 103.25099 36399 ft 425 kts 323°
2026-05-06 02:47 34.87889 103.21490 36405 ft 424 kts 323°
2026-05-06 02:48 34.92987 103.17878 36411 ft 424 kts 323°
2026-05-06 02:48 34.98080 103.14258 36416 ft 424 kts 323°
2026-05-06 02:49 35.03173 103.10630 36415 ft 424 kts 323°
2026-05-06 02:49 35.08267 103.06996 36419 ft 424 kts 323°
2026-05-06 02:50 35.13356 103.03363 36420 ft 424 kts 323°
2026-05-06 02:50 35.18453 102.99724 36420 ft 424 kts 323°
2026-05-06 02:51 35.23518 102.96104 36417 ft 425 kts 323°
2026-05-06 02:51 35.28617 102.92448 36417 ft 425 kts 323°
2026-05-06 02:52 35.33727 102.88783 36419 ft 426 kts 323°
2026-05-06 02:52 35.38831 102.85113 36410 ft 425 kts 323°
2026-05-06 02:53 35.43924 102.81442 36393 ft 425 kts 323°
2026-05-06 02:53 35.49025 102.77759 36399 ft 425 kts 323°
2026-05-06 02:54 35.53265 102.74701 36399 ft 426 kts 323°
2026-05-06 02:54 35.58375 102.71016 36388 ft 425 kts 323°
2026-05-06 02:55 35.63479 102.67324 36390 ft 426 kts 323°
2026-05-06 02:55 35.69415 102.63018 36385 ft 426 kts 323°
2026-05-06 02:56 35.74520 102.59303 36385 ft 426 kts 323°
2026-05-06 02:56 35.79630 102.55591 36384 ft 427 kts 323°
2026-05-06 02:57 35.83904 102.52543 36379 ft 427 kts 323°
2026-05-06 02:57 35.89067 102.48902 36379 ft 428 kts 323°
2026-05-06 02:58 35.94222 102.45251 36378 ft 427 kts 323°
2026-05-06 02:58 35.99362 102.41588 36364 ft 426 kts 323°
2026-05-06 02:59 36.04500 102.37916 36365 ft 427 kts 323°
2026-05-06 02:59 36.09642 102.34244 36361 ft 427 kts 324°
2026-05-06 03:00 36.14782 102.30568 36351 ft 427 kts 323°
2026-05-06 03:00 36.19914 102.26886 36350 ft 426 kts 323°
2026-05-06 03:01 36.25046 102.23201 36351 ft 426 kts 323°
2026-05-06 03:01 36.30169 102.19512 36345 ft 426 kts 323°
2026-05-06 03:02 36.35292 102.15817 36341 ft 426 kts 323°
2026-05-06 03:02 36.40415 102.12124 36336 ft 426 kts 323°
2026-05-06 03:03 36.45537 102.08426 36335 ft 426 kts 323°
2026-05-06 03:03 36.50656 102.04718 36336 ft 426 kts 323°
2026-05-06 03:04 36.55774 102.01099 36333 ft 427 kts 325°
2026-05-06 03:04 36.61047 101.97681 36333 ft 428 kts 327°
2026-05-06 03:05 36.66344 101.94316 36332 ft 427 kts 326°
2026-05-06 03:05 36.71616 101.90911 36336 ft 427 kts 326°
2026-05-06 03:06 36.76866 101.87467 36338 ft 426 kts 326°
2026-05-06 03:06 36.82107 101.84009 36341 ft 426 kts 326°
2026-05-06 03:07 36.87346 101.80564 36347 ft 425 kts 326°
2026-05-06 03:07 36.92585 101.77121 36356 ft 425 kts 326°
2026-05-06 03:08 36.97812 101.73681 36372 ft 424 kts 326°
2026-05-06 03:08 37.03023 101.70245 36375 ft 423 kts 326°
2026-05-06 03:09 37.08229 101.66811 36389 ft 423 kts 326°
2026-05-06 03:09 37.13425 101.63374 36392 ft 422 kts 326°
2026-05-06 03:10 37.18607 101.59927 36389 ft 422 kts 326°
2026-05-06 03:10 37.23788 101.56482 36398 ft 421 kts 326°
2026-05-06 03:11 37.28958 101.53039 36404 ft 421 kts 326°
2026-05-06 03:11 37.34172 101.49769 36401 ft 422 kts 328°
2026-05-06 03:12 37.39527 101.46721 36406 ft 422 kts 329°
2026-05-06 03:12 37.44878 101.43681 36406 ft 421 kts 329°
2026-05-06 03:13 37.50190 101.40576 36403 ft 421 kts 328°
2026-05-06 03:13 37.55487 101.37448 36404 ft 421 kts 329°
2026-05-06 03:14 37.60787 101.34320 36405 ft 420 kts 328°
2026-05-06 03:14 37.65425 101.30127 36399 ft 405 kts 309°
2026-05-06 03:15 37.68594 101.24369 36391 ft 398 kts 296°
2026-05-06 03:15 37.71295 101.18267 36385 ft 398 kts 296°
2026-05-06 03:16 37.74001 101.12166 36384 ft 398 kts 296°
2026-05-06 03:16 37.76698 101.06056 36382 ft 398 kts 296°
2026-05-06 03:17 37.79383 100.99941 36371 ft 398 kts 296°
2026-05-06 03:17 37.82070 100.93818 36368 ft 398 kts 296°
2026-05-06 03:18 37.84731 100.87742 36376 ft 397 kts 296°
2026-05-06 03:18 37.87382 100.81611 36371 ft 397 kts 296°
2026-05-06 03:19 37.90035 100.75469 36376 ft 397 kts 296°
2026-05-06 03:19 37.92683 100.69331 36373 ft 397 kts 296°
2026-05-06 03:20 37.96645 100.60113 36370 ft 397 kts 296°
2026-05-06 03:20 37.99281 100.53966 36372 ft 397 kts 296°
2026-05-06 03:21 38.01912 100.47816 36368 ft 397 kts 296°
2026-05-06 03:21 38.04537 100.41662 36363 ft 396 kts 296°
2026-05-06 03:22 38.07165 100.35511 36366 ft 397 kts 295°
2026-05-06 03:22 38.09797 100.29361 36366 ft 397 kts 295°
2026-05-06 03:23 38.12414 100.23208 36358 ft 396 kts 295°
2026-05-06 03:23 38.15007 100.17085 36360 ft 396 kts 295°
2026-05-06 03:24 38.17601 100.10936 36349 ft 395 kts 295°
2026-05-06 03:24 38.20199 100.04781 36350 ft 395 kts 295°
2026-05-06 03:25 38.22806 99.98630 36345 ft 394 kts 296°
2026-05-06 03:25 38.25485 99.92532 36337 ft 394 kts 296°
2026-05-06 03:26 38.28183 99.86444 36353 ft 395 kts 296°
2026-05-06 03:26 38.30875 99.80339 36353 ft 395 kts 296°
2026-05-06 03:27 38.33553 99.74226 36357 ft 395 kts 296°
2026-05-06 03:27 38.36223 99.68110 36358 ft 395 kts 296°
2026-05-06 03:28 38.38884 99.61994 36354 ft 394 kts 296°
2026-05-06 03:28 38.41535 99.55876 36362 ft 394 kts 295°
2026-05-06 03:29 38.44190 99.49755 36365 ft 394 kts 295°
2026-05-06 03:29 38.46827 99.43683 36371 ft 394 kts 295°
2026-05-06 03:30 38.49469 99.37564 36364 ft 394 kts 295°
2026-05-06 03:30 38.52102 99.31449 36358 ft 393 kts 295°
2026-05-06 03:31 38.54742 99.25324 36370 ft 393 kts 295°
2026-05-06 03:31 38.57376 99.19214 36362 ft 392 kts 295°
2026-05-06 03:32 38.59994 99.13101 36356 ft 392 kts 295°
2026-05-06 03:32 38.62603 99.06982 36361 ft 393 kts 295°
2026-05-06 03:33 38.65226 99.00847 36364 ft 393 kts 295°
2026-05-06 03:33 38.67847 98.94717 36369 ft 393 kts 295°
2026-05-06 03:34 38.70458 98.88582 36374 ft 393 kts 295°
2026-05-06 03:34 38.73043 98.82480 36379 ft 392 kts 295°
2026-05-06 03:35 38.75645 98.76332 36385 ft 393 kts 295°
2026-05-06 03:35 38.78249 98.70191 36384 ft 392 kts 295°
2026-05-06 03:36 38.80848 98.64042 36379 ft 391 kts 295°
2026-05-06 03:36 38.83434 98.57904 36381 ft 392 kts 295°
2026-05-06 03:37 38.86020 98.51758 36375 ft 392 kts 295°
2026-05-06 03:37 38.88607 98.45605 36379 ft 391 kts 295°
2026-05-06 03:38 38.91182 98.39449 36379 ft 391 kts 295°
2026-05-06 03:38 38.93755 98.33297 36367 ft 391 kts 295°
2026-05-06 03:39 38.96321 98.27137 36367 ft 391 kts 294°
2026-05-06 03:39 38.98866 98.21020 36364 ft 391 kts 295°
2026-05-06 03:40 39.01429 98.14862 36360 ft 390 kts 294°
2026-05-06 03:40 39.03983 98.08698 36362 ft 390 kts 294°
2026-05-06 03:41 39.06533 98.02532 36361 ft 390 kts 294°
2026-05-06 03:41 39.09080 97.96370 36360 ft 390 kts 294°
2026-05-06 03:42 39.11615 97.90218 36360 ft 389 kts 294°
2026-05-06 03:42 39.14149 97.84057 36353 ft 389 kts 294°
2026-05-06 03:43 39.16680 97.77897 36356 ft 389 kts 294°
2026-05-06 03:43 39.19206 97.71735 36353 ft 389 kts 294°
2026-05-06 03:44 39.21733 97.65566 36348 ft 389 kts 294°
2026-05-06 03:44 39.24252 97.59392 36353 ft 389 kts 294°
2026-05-06 03:45 39.26737 97.53244 36353 ft 389 kts 294°
2026-05-06 03:45 39.29229 97.47043 36357 ft 389 kts 294°
2026-05-06 03:46 39.31715 97.40840 36358 ft 389 kts 294°
2026-05-06 03:46 39.34201 97.34633 36342 ft 390 kts 294°
2026-05-06 03:47 39.36695 97.28427 36331 ft 388 kts 294°
2026-05-06 03:47 39.39184 97.22223 36333 ft 389 kts 294°
2026-05-06 03:48 39.41670 97.16013 36331 ft 389 kts 293°
2026-05-06 03:48 39.44135 97.09797 36323 ft 388 kts 293°
2026-05-06 03:49 39.46183 97.04626 36328 ft 389 kts 293°
2026-05-06 03:49 39.49076 96.97380 36315 ft 388 kts 294°
2026-05-06 03:50 39.51569 96.91175 36332 ft 388 kts 294°
2026-05-06 03:50 39.53638 96.86017 36320 ft 388 kts 294°
2026-05-06 03:51 39.56121 96.79803 36316 ft 388 kts 293°
2026-05-06 03:51 39.59001 96.72573 36318 ft 388 kts 293°
2026-05-06 03:52 39.61073 96.67356 36319 ft 388 kts 293°
2026-05-06 03:52 39.63545 96.61125 36320 ft 388 kts 293°
2026-05-06 03:53 39.65996 96.54936 36323 ft 388 kts 293°
2026-05-06 03:53 39.68451 96.48704 36316 ft 388 kts 293°
2026-05-06 03:54 39.70896 96.42469 36312 ft 387 kts 293°
2026-05-06 03:54 39.73331 96.36233 36308 ft 387 kts 293°
2026-05-06 03:55 39.75772 96.29993 36299 ft 387 kts 293°
2026-05-06 03:55 39.78204 96.23754 36286 ft 387 kts 293°
2026-05-06 03:56 39.80632 96.17509 36274 ft 387 kts 293°
2026-05-06 03:56 39.83055 96.11270 36268 ft 387 kts 293°
2026-05-06 03:57 39.85475 96.05023 36259 ft 387 kts 293°
2026-05-06 03:57 39.87899 95.98772 36255 ft 387 kts 293°
2026-05-06 03:58 39.90315 95.92515 36248 ft 387 kts 293°
2026-05-06 03:58 39.92715 95.86288 36243 ft 387 kts 293°
2026-05-06 03:59 39.95130 95.80017 36241 ft 387 kts 292°
2026-05-06 03:59 39.97534 95.73733 36238 ft 387 kts 292°
2026-05-06 04:00 39.99935 95.67446 36235 ft 388 kts 292°
2026-05-06 04:00 40.02341 95.61150 36231 ft 388 kts 292°
2026-05-06 04:01 40.04744 95.54851 36226 ft 388 kts 292°
2026-05-06 04:01 40.07150 95.48541 36225 ft 388 kts 292°
2026-05-06 04:02 40.09549 95.42228 36214 ft 388 kts 292°
2026-05-06 04:02 40.11948 95.35905 36213 ft 389 kts 292°
2026-05-06 04:03 40.14340 95.29574 36208 ft 389 kts 292°
2026-05-06 04:03 40.16733 95.23232 36201 ft 389 kts 292°
2026-05-06 04:04 40.19122 95.16874 36194 ft 390 kts 292°
2026-05-06 04:04 40.21520 95.10512 36190 ft 390 kts 292°
2026-05-06 04:05 40.23929 95.04201 36184 ft 391 kts 292°
2026-05-06 04:05 40.26355 94.97832 36184 ft 391 kts 292°
2026-05-06 04:06 40.28774 94.91449 36183 ft 392 kts 292°
2026-05-06 04:06 40.31455 94.85220 36183 ft 398 kts 303°
2026-05-06 04:07 40.34912 94.79543 36180 ft 399 kts 303°
2026-05-06 04:07 40.38372 94.73855 36183 ft 399 kts 303°
2026-05-06 04:08 40.41821 94.68147 36177 ft 399 kts 303°
2026-05-06 04:08 40.45268 94.62423 36181 ft 400 kts 303°
2026-05-06 04:09 40.48729 94.56683 36184 ft 401 kts 303°
2026-05-06 04:09 40.52190 94.50931 36192 ft 402 kts 303°
2026-05-06 04:10 40.55629 94.45199 36190 ft 402 kts 303°
2026-05-06 04:10 40.59093 94.39418 36197 ft 403 kts 303°
2026-05-06 04:11 40.62561 94.33615 36203 ft 403 kts 303°
2026-05-06 04:11 40.66030 94.27808 36209 ft 404 kts 303°
2026-05-06 04:12 40.69502 94.21983 36215 ft 404 kts 303°
2026-05-06 04:12 40.72975 94.16143 36215 ft 405 kts 303°
2026-05-06 04:13 40.76450 94.10301 36218 ft 405 kts 303°
2026-05-06 04:13 40.79931 94.04445 36223 ft 406 kts 303°
2026-05-06 04:14 40.83400 93.98561 36217 ft 406 kts 302°
2026-05-06 04:14 40.86868 93.92671 36221 ft 406 kts 303°
2026-05-06 04:15 40.90344 93.86775 36216 ft 407 kts 303°
2026-05-06 04:15 40.93882 93.80924 36220 ft 409 kts 305°
2026-05-06 04:16 40.97612 93.75223 36223 ft 410 kts 306°
2026-05-06 04:16 41.01371 93.69538 36227 ft 410 kts 306°
2026-05-06 04:17 41.05090 93.63802 36231 ft 411 kts 305°
2026-05-06 04:17 41.08759 93.58066 36230 ft 411 kts 305°
2026-05-06 04:18 41.12458 93.52283 36232 ft 411 kts 305°
2026-05-06 04:18 41.16186 93.46465 36235 ft 411 kts 305°
2026-05-06 04:19 41.19887 93.40673 36231 ft 411 kts 305°
2026-05-06 04:19 41.23567 93.34912 36232 ft 412 kts 305°
2026-05-06 04:20 41.27269 93.29103 36231 ft 412 kts 305°
2026-05-06 04:20 41.30964 93.23276 36236 ft 412 kts 305°
2026-05-06 04:21 41.34664 93.17440 36235 ft 412 kts 305°
2026-05-06 04:21 41.38359 93.11600 36238 ft 412 kts 305°
2026-05-06 04:22 41.42055 93.05753 36229 ft 413 kts 305°
2026-05-06 04:23 41.47592 92.96959 36236 ft 413 kts 305°
2026-05-06 04:23 41.51284 92.91094 36233 ft 413 kts 305°
2026-05-06 04:24 41.54976 92.85215 36237 ft 413 kts 304°
2026-05-06 04:24 41.58662 92.79315 36235 ft 413 kts 304°
2026-05-06 04:25 41.62346 92.73418 36237 ft 413 kts 304°
2026-05-06 04:25 41.66032 92.67522 36236 ft 413 kts 304°
2026-05-06 04:26 41.69710 92.61612 36234 ft 413 kts 304°
2026-05-06 04:26 41.73384 92.55688 36235 ft 413 kts 304°
2026-05-06 04:27 41.77056 92.49763 36240 ft 414 kts 304°
2026-05-06 04:27 41.80729 92.43831 36236 ft 414 kts 304°
2026-05-06 04:28 41.84407 92.37892 36241 ft 414 kts 304°
2026-05-06 04:28 41.88074 92.31942 36240 ft 414 kts 304°
2026-05-06 04:29 41.91743 92.25987 36240 ft 414 kts 304°
2026-05-06 04:29 41.95404 92.20015 36241 ft 414 kts 304°
2026-05-06 04:30 41.99061 92.14038 36240 ft 414 kts 304°
2026-05-06 04:30 42.02723 92.08044 36238 ft 415 kts 304°
2026-05-06 04:31 42.06382 92.02045 36239 ft 415 kts 304°
2026-05-06 04:31 42.10042 91.96037 36242 ft 415 kts 304°
2026-05-06 04:32 42.13703 91.90020 36241 ft 416 kts 304°
2026-05-06 04:32 42.17342 91.84026 36246 ft 416 kts 304°
2026-05-06 04:33 42.21000 91.77981 36246 ft 416 kts 304°
2026-05-06 04:33 42.24921 91.72192 36247 ft 421 kts 311°
2026-05-06 04:34 42.29190 91.66766 36247 ft 422 kts 311°
2026-05-06 04:34 42.33449 91.61311 36250 ft 422 kts 311°
2026-05-06 04:35 42.37708 91.55846 36251 ft 422 kts 311°
2026-05-06 04:35 42.41969 91.50380 36251 ft 422 kts 311°
2026-05-06 04:36 42.46230 91.44898 36252 ft 423 kts 311°
2026-05-06 04:36 42.50493 91.39403 36245 ft 423 kts 311°
2026-05-06 04:37 42.54747 91.33901 36249 ft 423 kts 311°
2026-05-06 04:37 42.59006 91.28386 36247 ft 423 kts 311°
2026-05-06 04:38 42.63264 91.22871 36247 ft 423 kts 311°
2026-05-06 04:38 42.67518 91.17336 36117 ft 424 kts 311°
2026-05-06 04:38 42.69644 91.14566 35865 ft 423 kts 311°
2026-05-06 04:39 42.71771 91.11798 35618 ft 423 kts 311°
2026-05-06 04:39 42.73902 91.09031 35381 ft 424 kts 311°
2026-05-06 04:39 42.76030 91.06260 35139 ft 424 kts 311°
2026-05-06 04:39 42.77439 91.04419 34983 ft 424 kts 311°
2026-05-06 04:40 42.79567 91.01632 34748 ft 425 kts 311°
2026-05-06 04:40 42.81700 90.98839 34515 ft 425 kts 311°
2026-05-06 04:40 42.83831 90.96051 34280 ft 426 kts 311°
2026-05-06 04:40 42.85826 90.93094 34040 ft 421 kts 302°
2026-05-06 04:41 42.87370 90.89733 33771 ft 418 kts 293°
2026-05-06 04:41 42.88441 90.86067 33501 ft 416 kts 284°
2026-05-06 04:41 42.89016 90.82210 33239 ft 416 kts 275°
2026-05-06 04:41 42.89157 90.78267 32972 ft 418 kts 271°
2026-05-06 04:42 42.89239 90.74293 32173 ft 421 kts 271°
2026-05-06 04:42 42.89314 90.70334 31623 ft 415 kts 271°
2026-05-06 04:42 42.89412 90.65151 30807 ft 411 kts 271°
2026-05-06 04:42 42.89462 90.62518 30388 ft 410 kts 271°
2026-05-06 04:43 42.89534 90.58640 29735 ft 409 kts 272°
2026-05-06 04:43 42.89607 90.54785 29146 ft 405 kts 272°
2026-05-06 04:43 42.89678 90.50966 28564 ft 401 kts 272°
2026-05-06 04:43 42.89747 90.47179 27985 ft 398 kts 272°
2026-05-06 04:44 42.89813 90.43421 27409 ft 395 kts 272°
2026-05-06 04:44 42.89876 90.39691 26840 ft 392 kts 272°
2026-05-06 04:44 42.89937 90.36037 26286 ft 390 kts 272°
2026-05-06 04:44 42.89996 90.32352 25756 ft 388 kts 272°
2026-05-06 04:45 42.90052 90.28683 25191 ft 386 kts 272°
2026-05-06 04:45 42.90158 90.25030 24641 ft 385 kts 277°
2026-05-06 04:45 42.90573 90.21436 24129 ft 383 kts 280°
2026-05-06 04:45 42.91013 90.17863 23598 ft 381 kts 280°
2026-05-06 04:46 42.91444 90.14305 23065 ft 378 kts 280°
2026-05-06 04:46 42.91868 90.10787 22579 ft 374 kts 279°
2026-05-06 04:46 42.92287 90.07304 22086 ft 370 kts 279°
2026-05-06 04:46 42.92701 90.03853 21606 ft 367 kts 279°
2026-05-06 04:47 42.93111 90.00430 21108 ft 365 kts 279°
2026-05-06 04:47 42.93520 89.97001 20590 ft 369 kts 282°
2026-05-06 04:47 42.93934 89.93529 20092 ft 371 kts 282°
2026-05-06 04:47 42.94348 89.90047 19574 ft 373 kts 282°
2026-05-06 04:48 42.94762 89.86547 19038 ft 374 kts 282°
2026-05-06 04:48 42.95177 89.83034 18498 ft 376 kts 282°
2026-05-06 04:48 42.95397 89.79465 17906 ft 380 kts 270°
2026-05-06 04:48 42.95241 89.75870 17366 ft 379 kts 268°
2026-05-06 04:49 42.95076 89.72278 16830 ft 379 kts 268°
2026-05-06 04:49 42.94916 89.68697 16297 ft 378 kts 268°
2026-05-06 04:49 42.94758 89.65114 15772 ft 378 kts 268°
2026-05-06 04:49 42.94601 89.61584 15255 ft 377 kts 268°
2026-05-06 04:50 42.94436 89.57963 14712 ft 377 kts 268°
2026-05-06 04:50 42.94271 89.54403 14183 ft 376 kts 267°
2026-05-06 04:50 42.94107 89.50888 13618 ft 375 kts 267°
2026-05-06 04:50 42.93938 89.47303 13083 ft 371 kts 267°
2026-05-06 04:51 42.93777 89.43847 12532 ft 368 kts 267°
2026-05-06 04:51 42.93615 89.40374 11987 ft 366 kts 267°
2026-05-06 04:51 42.93451 89.36934 11501 ft 361 kts 266°
2026-05-06 04:51 42.93286 89.33526 10978 ft 358 kts 266°
2026-05-06 04:52 42.93122 89.30150 10526 ft 352 kts 266°
2026-05-06 04:52 42.92963 89.26886 10419 ft 338 kts 266°
2026-05-06 04:52 42.92810 89.23751 10294 ft 325 kts 266°
2026-05-06 04:52 42.92663 89.20739 10170 ft 313 kts 266°
2026-05-06 04:53 42.92521 89.17843 10051 ft 296 kts 266°
2026-05-06 04:53 42.92389 89.15136 9843 ft 278 kts 266°
2026-05-06 04:53 42.92270 89.12542 9371 ft 271 kts 268°
2026-05-06 04:53 42.92219 89.09993 8837 ft 267 kts 269°
2026-05-06 04:54 42.92205 89.07472 8278 ft 264 kts 270°
2026-05-06 04:54 42.92201 89.04979 7720 ft 261 kts 270°
2026-05-06 04:54 42.92197 89.02514 7161 ft 259 kts 270°
2026-05-06 04:54 42.92185 89.00073 6611 ft 256 kts 269°
2026-05-06 04:55 42.92168 88.97656 6018 ft 253 kts 269°
2026-05-06 04:55 42.92150 88.95264 5459 ft 251 kts 269°
2026-05-06 04:55 42.92131 88.92982 5286 ft 231 kts 269°
2026-05-06 04:55 42.92284 88.90856 4900 ft 223 kts 291°
2026-05-06 04:56 42.93148 88.89151 4487 ft 221 kts 322°
2026-05-06 04:56 42.94533 88.88311 4185 ft 220 kts 353°
2026-05-06 04:56 42.96067 88.88237 3884 ft 220 kts 359°
2026-05-06 04:56 42.97566 88.88219 3764 ft 212 kts 359°
2026-05-06 04:57 42.99005 88.88203 3676 ft 200 kts 359°
2026-05-06 04:57 43.00355 88.88187 3546 ft 188 kts 359°
2026-05-06 04:57 43.01616 88.88357 3413 ft 179 kts 22°
2026-05-06 04:57 43.02557 88.89349 3284 ft 168 kts 58°
2026-05-06 04:58 43.02911 88.90790 3160 ft 156 kts 90°
2026-05-06 04:58 43.02924 88.92213 3141 ft 147 kts 91°
2026-05-06 04:58 43.02938 88.93605 2987 ft 145 kts 91°
2026-05-06 04:58 43.02951 88.94967 2814 ft 145 kts 92°
2026-05-06 04:59 43.02963 88.96344 2645 ft 144 kts 92°
2026-05-06 04:59 43.02976 88.97710 2456 ft 143 kts 93°
2026-05-06 04:59 43.02988 88.99070 2263 ft 143 kts 92°
2026-05-06 04:59 43.03000 89.00425 2069 ft 143 kts 92°
2026-05-06 05:00 43.03012 89.01766 1877 ft 141 kts 92°
2026-05-06 05:00 43.03024 89.03108 1691 ft 141 kts 92°
2026-05-06 05:00 43.03035 89.04441 1497 ft 140 kts 92°
2026-05-06 05:00 43.03047 89.05775 1325 ft 140 kts 93°
2026-05-06 05:01 43.03056 89.07099 1122 ft 140 kts 92°
2026-05-06 05:01 43.03072 89.08426 959 ft 138 kts 94°
2026-05-06 05:01 43.03074 89.09602 933 ft 99 kts 90°
2026-05-06 05:01 43.03076 89.10154 932 ft 25 kts 91°
2026-05-06 05:02 43.03034 89.10239 937 ft 10 kts 186°
2026-05-06 05:02 43.02940 89.10234 936 ft 18 kts 179°
2026-05-06 05:02 43.02827 89.10234 929 ft 3 kts 181°
2026-05-06 05:02 43.02818 89.10219 930 ft 1 kts 253°
2026-05-06 05:03 43.02810 89.10173 928 ft 9 kts 251°
2026-05-06 05:03 43.02780 89.10166 929 ft 0 kts 184°